[[{"header":{"parameterUnit":"m.s-1","parameterCategory":1,"la1":30.2992,"la2":30.254,"lo1":-89.0895,"lo2":-89.0443,"dy":0.0025,"dx":0.0025,"nx":19,"ny":19,"refTime":"2026-03-18T09:00:00:Z","depth":0,"parameterNumber":2,"parameterNumberName":"U-component_of_WINDS"},"data":[0,0,0,1.1703,1.1705,1.1831,1.1832,1.1985,1.1986,0,0,0,0,0,0,0,0,0,0,0,1.166,1.1661,1.1703,1.1706,1.1831,1.1832,1.1985,1.1986,0,0,0,0,0,0,0,0,0,0,0,1.1659,1.166,1.1661,1.1706,1.1831,1.1832,1.1984,1.1892,0,0,0,0,0,0,0,0,0,0,1.1771,1.1726,1.166,1.1661,1.1707,1.1831,1.1832,1.1888,1.1898,1.1924,0,1.1945,0,1.1968,1.1996,1.1996,0,0,0,1.171,1.1718,1.1757,1.1662,1.1708,1.1831,1.1776,1.1894,1.1905,1.1937,1.1947,1.1953,1.197,1.1997,1.1997,1.2128,1.2129,0,0,1.1703,1.168,1.1749,1.1764,1.1743,1.1772,1.178,1.1901,1.191,1.1948,1.1957,1.1973,1.1998,1.1999,1.2128,1.2128,0,0,0,1.168,1.1675,1.1711,1.1757,1.178,1.1775,1.1784,1.1905,1.1919,1.1958,1.1975,1.1998,1.2,1.2128,1.2128,1.2123,0,0,0,1.1676,1.1661,1.1708,1.1694,1.1778,1.1844,1.1786,1.191,1.1925,1.1974,1.1998,1.2002,1.2127,1.2128,1.2123,1.2125,0,0,0,1.1654,1.1659,1.1675,1.1693,1.1746,1.1843,1.1864,1.1914,1.1934,1.1996,1.2002,1.2127,1.2128,1.2122,1.2124,1.2151,0,0,0,1.1623,1.1671,1.1674,1.1734,1.1745,1.1839,1.1863,1.1935,1.1987,1.1999,1.2127,1.2128,1.2122,1.2123,1.215,1.2168,1.2174,0,0,1.167,1.1675,1.1712,1.1719,1.1806,1.1822,1.1908,1.198,1.2008,1.2087,1.209,1.2123,1.2124,1.2151,1.2217,1.2221,0,0,0,1.1719,1.1745,1.1773,1.1821,1.1876,1.1923,1.1983,1.2009,1.2077,1.2043,1.2142,1.2143,1.216,1.2169,1.2173,1.2188,1.2132,1.2132,1.2132,1.1751,1.1783,1.1845,1.1892,1.1939,1.2,1.2041,1.2086,1.2107,1.2129,1.2152,1.2189,1.2199,1.2202,1.2217,1.2166,1.2166,1.2166,1.2166,1.1821,1.1862,1.1886,1.1955,1.1989,1.2048,1.2108,1.212,1.218,1.2175,1.2191,1.2181,1.2206,1.2221,1.2166,1.2166,1.2166,1.2166,1.2166,1.1844,1.1869,1.1899,1.1971,1.2023,1.207,1.2125,1.2155,1.2184,1.22,1.2227,1.2227,1.2229,1.2211,1.2211,1.2211,1.2211,1.2211,1.2211,1.1855,1.1889,1.1932,1.1993,1.2027,1.2075,1.2137,1.2171,1.2217,1.2235,1.2235,1.2252,1.2203,1.2188,1.2214,1.2213,1.2213,1.2213,1.2213,1.191,1.1902,1.1967,1.2001,1.2075,1.2124,1.2161,1.2229,1.2262,1.2288,1.2302,1.2261,1.2269,1.2267,1.2255,1.2296,1.2296,1.2296,1.2296,1.1928,1.1935,1.2008,1.206,1.2115,1.2154,1.2227,1.2275,1.2323,1.2345,1.2344,1.2332,1.2328,1.2339,1.2334,1.2324,1.2381,1.2381,1.2381,1.1963,1.1977,1.2032,1.2079,1.2138,1.2188,1.2257,1.2316,1.237,1.2385,1.2363,1.236,1.234,1.2333,1.2346,1.2339,1.2321,0,0]},{"header":{"parameterUnit":"m.s-1","parameterCategory":1,"la1":30.2992,"la2":30.254,"lo1":-89.0895,"lo2":-89.0443,"dy":0.0025,"dx":0.0025,"nx":19,"ny":19,"refTime":"2026-03-18T09:00:00:Z","depth":0,"parameterNumber":3,"parameterNumberName":"V-component_of_WINDS"},"data":[0,0,0,2.8201,2.8201,2.8173,2.8173,2.8137,2.8137,0,0,0,0,0,0,0,0,0,0,0,2.8212,2.8212,2.8202,2.8201,2.8173,2.8173,2.8137,2.8137,0,0,0,0,0,0,0,0,0,0,0,2.8212,2.8212,2.8212,2.8201,2.8173,2.8173,2.8137,2.8158,0,0,0,0,0,0,0,0,0,0,2.8185,2.8197,2.8212,2.8212,2.8201,2.8173,2.8173,2.8159,2.8157,2.815,0,2.8148,0,2.8142,2.8135,2.8135,0,0,0,2.8199,2.8199,2.819,2.8212,2.82,2.8173,2.8185,2.8158,2.8155,2.8147,2.8147,2.8146,2.8141,2.8135,2.8134,2.811,2.811,0,0,2.82,2.8208,2.8192,2.8188,2.8195,2.8186,2.8184,2.8156,2.8155,2.8147,2.8145,2.8141,2.8134,2.8134,2.811,2.811,0,0,0,2.8206,2.8209,2.82,2.819,2.8185,2.8185,2.8183,2.8157,2.8153,2.8144,2.814,2.8134,2.8134,2.811,2.811,2.8117,0,0,0,2.8207,2.8212,2.8201,2.8205,2.8186,2.8171,2.8185,2.8155,2.8152,2.8141,2.8134,2.8134,2.811,2.811,2.8117,2.8119,0,0,0,2.8213,2.8213,2.821,2.8206,2.8194,2.8171,2.8166,2.8154,2.8149,2.8135,2.8133,2.811,2.811,2.8117,2.8119,2.8114,0,0,0,2.8221,2.8217,2.821,2.8203,2.8195,2.8177,2.8166,2.8152,2.8141,2.8134,2.811,2.811,2.8117,2.8119,2.8114,2.8111,2.8111,0,0,2.822,2.8217,2.8212,2.8205,2.8191,2.818,2.8165,2.8147,2.8138,2.8119,2.8119,2.8117,2.8119,2.8114,2.8109,2.8109,0,0,0,2.8214,2.8211,2.8205,2.8195,2.8182,2.8169,2.8152,2.8145,2.8129,2.8131,2.8114,2.8115,2.8112,2.811,2.811,2.8106,2.811,2.811,2.811,2.8222,2.8212,2.8203,2.8188,2.8178,2.816,2.815,2.8137,2.8128,2.8124,2.8119,2.8117,2.8116,2.8115,2.8111,2.8117,2.8117,2.8117,2.8117,2.8219,2.8212,2.82,2.8188,2.8175,2.8163,2.8144,2.8138,2.8124,2.8121,2.8118,2.8115,2.8116,2.8111,2.8117,2.8117,2.8117,2.8117,2.8117,2.8223,2.8217,2.8209,2.8193,2.818,2.8164,2.8151,2.814,2.8129,2.8125,2.8117,2.8117,2.8114,2.8122,2.8122,2.8122,2.8122,2.8122,2.8122,2.823,2.8221,2.8212,2.8196,2.8187,2.8174,2.8154,2.8144,2.8129,2.8122,2.8122,2.8112,2.8119,2.812,2.8122,2.8122,2.8122,2.8122,2.8122,2.8229,2.8227,2.8214,2.8205,2.8184,2.8171,2.8157,2.8137,2.8127,2.812,2.8111,2.8117,2.8113,2.8113,2.8114,2.8114,2.8114,2.8114,2.8114,2.8232,2.8229,2.8212,2.8198,2.8183,2.8168,2.815,2.8133,2.8115,2.8107,2.8105,2.8105,2.8106,2.8101,2.8101,2.8102,2.8099,2.8099,2.8099,2.823,2.8225,2.8214,2.8198,2.818,2.8164,2.8146,2.8128,2.8106,2.8098,2.81,2.8101,2.8101,2.8102,2.8095,2.8095,2.8096,0,0]}]]